Regional Weather Roundup
Issued by NWS Upton, NY

Home | Current Version | Previous Version | Text Only | Print | Product List | Glossary On
Versions: 1 2 3 4 5 6 7 8 9 10 11 12 13 14 15 16 17 18 19 20 21 22 23 24 25 26 27 28 29 30 31 32 33 34 35 36 37 38 39 40 41 42 43 44 45 46 47 48 49 50
000
ASUS41 KOKX 030218
RWROKX

REGIONAL WEATHER ROUNDUP
NATIONAL WEATHER SERVICE NEW YORK NY
1000 PM EDT THU JUL 02 2015

NOTE: "FAIR" INDICATES FEW OR NO CLOUDS BELOW 12,000 FEET WITH NO
SIGNIFICANT WEATHER AND/OR OBSTRUCTIONS TO VISIBILITY.

NYZ071-072-176-178-NJZ106-104-030300-
NEW YORK CITY METRO AREA


CITY           SKY/WX    TMP DP  RH WIND       PRES   REMARKS
CENTRAL PARK   CLOUDY    74  58  57 CALM      29.90R
LAGUARDIA APRT CLOUDY    74  59  59 S3        29.86R
KENNEDY INTL   CLOUDY    69  62  78 SW5       29.88R
NEWARK/LIBERTY CLOUDY    72  64  76 CALM      29.87R
BRNX BOT. GARD   N/A     70  59  68 E1        29.89S
TETERBORO      CLOUDY    72  59  63 CALM      29.86R
$$

NYZ177-179-078>081-030300-
LONG ISLAND NEW YORK

CITY           SKY/WX    TMP DP  RH WIND       PRES   REMARKS
FARMINGDALE    RAIN      70  63  78 S6        29.88R
ISLIP          CLOUDY    70  62  76 SW5       29.87R
SHIRLEY        CLOUDY    68  62  81 CALM      29.88R
WESTHAMPTON    CLOUDY    67  64  90 CALM      29.89R
MONTAUK POINT    N/A     69  63  81 CALM      29.88R
$$

NYZ052-065-067-030300-
HUDSON VALLEY

CITY           SKY/WX    TMP DP  RH WIND       PRES   REMARKS
WHITE PLAINS   CLOUDY    68  62  81 CALM      29.88R
NEWBURGH       CLEAR     70  64  83 CALM      29.90R
MONTGOMERY     CLOUDY    67  63  87 N5        29.89R
POUGHKEEPSIE   CLOUDY    69  63  81 CALM      29.88R
ALBANY         MOCLDY    65  48  54 W8        29.91R
$$

NJZ001-105-106-008-010-013-015-019>022-104-030300-
NEW JERSEY

CITY           SKY/WX    TMP DP  RH WIND       PRES   REMARKS
NEWARK/LIBERTY CLOUDY    72  64  76 CALM      29.87R
TETERBORO      CLOUDY    72  59  63 CALM      29.86R
CALDWELL       CLOUDY    71  61  70 CALM      29.88R
MORRISTOWN     CLEAR     70  64  83 CALM      29.88R
SOMERVILLE     CLOUDY    67  64  90 CALM      29.86R
SUSSEX         CLOUDY    67  62  84 CALM      29.89R
ANDOVER          N/A     67  62  84 CALM      29.90R
TRENTON        CLOUDY    68  66  93 CALM      29.88R FOG
MILLVILLE      CLOUDY    68  66  93 W3        29.89R FOG
ATLANTIC CITY  CLOUDY    66  64  93 CALM      29.88R FOG
WRIGHTSTOWN    CLOUDY    67  66  99 N3        29.86R
TOMS RIVER     CLOUDY    66  64  94 CALM      29.88R
BELMAR         CLOUDY    66  61  82 CALM      29.88R
$$

PAZ047>061-062-071-030300-
EASTERN PENNSYLVANIA

CITY           SKY/WX    TMP DP  RH WIND       PRES   REMARKS
PHILADELPHIA   CLOUDY    74  63  68 NW5       29.89R
ALLENTOWN      CLOUDY    72  61  68 CALM      29.89R
SCRANTON       MOCLDY    67  58  72 E3        29.92R
$$

CTZ002-004>006-009-010-012-RIZ004-006-007-MAZ004-011-015-030300-
SOUTHERN NEW ENGLAND
 IN CT

CITY           SKY/WX    TMP DP  RH WIND       PRES   REMARKS
BRADLEY INTL   CLOUDY    69  59  70 N6        29.88R
HARTFORD       CLOUDY    70  63  78 SE7       29.88R
DANBURY        CLOUDY    66  60  81 SW3       29.90R
WTRBRY/OXFORD  CLOUDY    66  59  77 CALM      29.91R
BRIDGEPORT     CLOUDY    73  62  68 CALM      29.87R
MERIDEN        CLOUDY    69  65  86 CALM      29.88R
NEW HAVEN      CLOUDY    69  64  84 CALM      29.88R
CHESTER        FAIR      66  61  82 CALM      29.90R
GROTON         CLOUDY    68  62  81 CALM      29.87R
WILLIMANTIC    CLOUDY    68  64  87 N3        29.89R

 IN RI

CITY           SKY/WX    TMP DP  RH WIND       PRES   REMARKS
PROVIDENCE     CLOUDY    73  62  68 CALM      29.88R
BLOCK ISLAND   CLOUDY    66  61  82 CALM      29.87S
WESTERLY       CLOUDY    69  61  75 CALM      29.88R

 IN MA

CITY           SKY/WX    TMP DP  RH WIND       PRES   REMARKS
BOSTON         CLOUDY    74  55  51 W3        29.88R
WORCESTER      CLOUDY    66  58  75 NW6       29.92R
WESTFIELD      MOCLDY    64  61  90 CALM      29.90R
PROVINCETOWN   CLOUDY    66  10  11 S5        29.88S
NANTUCKET      CLOUDY    66  63  90 CALM      29.86F FOG
$$

ANZ330-335-338-340-345-350-353-355-030300-
COASTAL MARINE OBSERVATIONS


STATION/POSITION TIME  SKY/WX   TEMP    WIND        PRES    VSBY  WAVE
                                AIR SEA DIR/SP/G                  HT/PER
                 (UTC)          (F)     (DEG/KT/KT) (MB)    (MI)  (FT/S)
NY HARB ENTRANCE 0150            69 70   CALM  /  2 1011.0          3/ 8
4S FIRE IS       0103               69                N/A           3/ 8
20S FIRE ISLAND  0150            67 67  360/  4/  6 1011.2          3/ 8
GREAT SOUTH BAY  0130            71 75  280/  2/  4   N/A
23SW MTP         0150            67 67  100/  2/  2 1011.0          3/ 8
HUDSON CANYON    NOT AVBL
KINGS POINT      0100            72 69  170/  3/  4 1010.4
CENTRAL LI SOUND NOT AVBL
EASTERN LI SOUND 0100            66 64   CALM  /  2   N/A
ROBBINS REEF     0100            69     180/  5/  5 1010.4
$$


>>>>>>>>>>>>>>>>>>>>>>>>>>>> KEY <<<<<<<<<<<<<<<<<<<<<<<<<<<
>                                                          <
>     SKY/WX - SKY CONDITION/PRESENT WEATHER               <
>     TMP    - TEMPERATURE IN FAHRENHEIT                   <
>     DP     - DEWPOINT IN FAHRENHEIT                      <
>     RH     - RELATIVE HUMIDITY IN PERCENT                <
>     WIND   - DIRECTION AND SPEED IN MPH                  <
>     PRES   - MEAN SEA LEVEL PRESSURE IN INCHES OF HG     <
>     WCI    - WIND CHILL INDEX                            <
>     VSB    - VISIBILITY IN MILES                         <
>     HX     - HEAT INDEX                                  <
>     TC     - TEMPERATURE IN CELSIUS                      <
>     VRB    - VARIABLE WIND DIRECTION                     <
>                                                          <
>>>>>>>>>>>>>>>>>>>>>>>>>>>> KEY <<<<<<<<<<<<<<<<<<<<<<<<<<<




USA.gov is the U.S. government's official web portal to all federal, state and local government web resources and services.